START_TIME,STEP,MOV.,M34,t_acc.,L5,t_acc.,L18,t_acc.,L14,t_acc.
1979-08-07 06:00:23.210 ,0,1,0.,12.0,0.,12.0,0.,12.0,0.,12.0
1979-08-07 06:00:35.210 ,0,1,0.,12.0,0.,12.0,0.,12.0,0.,12.0
1979-08-07 06:00:47.210 ,3,1,0.,12.0,0.,12.0,0.,12.0,0.,12.0
1979-08-07 06:00:59.210 ,3,1,0.,12.0,0.,12.0,0.,12.0,0.,12.0
1979-08-07 06:01:11.210 ,7,1,0.,12.0,0.,12.0,0.,12.0,0.,12.0
1979-08-07 06:01:23.210 ,7,1,0.,12.0,0.,12.0,0.,12.0,0.,12.0
1979-08-07 06:01:35.210 ,4,1,0.,12.0,0.,12.0,0.,12.0,0.,12.0
1979-08-07 06:01:47.210 ,4,1,0.,12.0,0.,12.0,0.,12.0,0.,12.0
1979-08-07 06:01:59.210 ,0,1,0.,12.0,0.,12.0,0.,12.0,0.,12.0
1979-08-07 06:02:11.210 ,0,1,0.,12.0,0.,12.0,0.,12.0,0.,12.0
1979-08-07 06:02:23.210 ,3,1,0.,12.0,0.,12.0,0.,12.0,0.,12.0
1979-08-07 06:02:35.210 ,3,1,0.,12.0,0.,12.0,0.,12.0,0.,12.0
1979-08-07 06:02:47.210 ,7,1,0.,12.0,0.,12.0,0.,12.0,0.,12.0
1979-08-07 06:02:59.210 ,7,1,0.,12.0,0.,12.0,0.,12.0,0.,12.0
1979-08-07 06:03:11.210 ,4,1,0.,12.0,0.,12.0,0.,12.0,0.,12.0
1979-08-07 06:03:23.210 ,4,1,0.,12.0,0.,12.0,0.,12.0,0.,12.0
1979-08-07 06:03:35.210 ,0,1,0.,12.0,0.,12.0,0.,12.0,0.,12.0
1979-08-07 06:03:47.210 ,0,1,0.,12.0,0.,12.0,0.,12.0,0.,12.0
1979-08-07 06:03:59.210 ,3,1,0.,12.0,0.,12.0,0.,12.0,0.,12.0
1979-08-07 06:04:11.210 ,3,1,0.,12.0,0.,12.0,0.,12.0,0.,12.0
1979-08-07 06:04:23.210 ,7,1,0.,12.0,0.,12.0,0.,12.0,0.,12.0
1979-08-07 06:04:35.210 ,7,1,0.,12.0,0.,12.0,0.,12.0,0.,12.0
1979-08-07 06:04:47.210 ,4,1,0.,12.0,0.,12.0,0.,12.0,0.,12.0
1979-08-07 06:04:59.210 ,4,1,0.,12.0,0.,12.0,0.,12.0,0.,12.0
1979-08-07 06:05:11.210 ,0,1,0.,12.0,0.,12.0,0.,12.0,0.,12.0
1979-08-07 06:05:23.210 ,0,1,0.,12.0,0.,12.0,0.,12.0,0.,12.0
1979-08-07 06:05:35.210 ,0,0,0.,12.0,0.,12.0,0.,12.0,0.,12.0
1979-08-07 06:05:47.210 ,0,0,0.,12.0,0.,12.0,0.,12.0,0.,12.0
1979-08-07 06:05:59.210 ,0,0,0.,12.0,0.,12.0,0.,12.0,0.,12.0
1979-08-07 06:06:11.210 ,0,0,0.,12.0,0.,12.0,0.,12.0,0.,12.0
1979-08-07 06:06:23.210 ,5,1,0.,12.0,0.,12.0,0.,12.0,0.,12.0
1979-08-07 06:06:35.210 ,5,1,0.,12.0,0.,12.0,0.,12.0,0.,12.0
1979-08-07 06:06:47.210 ,5,0,0.,12.0,0.,12.0,0.,12.0,0.,12.0
1979-08-07 06:06:59.210 ,5,0,0.,12.0,0.,12.0,0.,12.0,0.,12.0
1979-08-07 06:07:11.210 ,4,1,0.,12.0,0.,12.0,0.,12.0,0.,12.0
1979-08-07 06:07:23.210 ,4,1,0.,12.0,0.,12.0,0.,12.0,0.,12.0
1979-08-07 06:07:35.210 ,4,0,0.,12.0,0.,12.0,0.,12.0,0.,12.0
1979-08-07 06:07:47.210 ,4,0,0.,12.0,0.,12.0,0.,12.0,0.,12.0
1979-08-07 06:07:59.210 ,3,1,0.,12.0,0.,12.0,0.,12.0,0.,12.0
1979-08-07 06:08:11.210 ,3,1,0.,12.0,0.,12.0,0.,12.0,0.,12.0
1979-08-07 06:08:23.210 ,3,0,0.,12.0,0.,12.0,0.,12.0,0.,12.0
1979-08-07 06:08:35.210 ,3,0,0.,12.0,0.,12.0,0.,12.0,0.,12.0
1979-08-07 06:08:47.210 ,2,1,0.,12.0,0.,12.0,0.,12.0,0.,12.0
1979-08-07 06:08:59.210 ,2,1,0.,12.0,0.,12.0,0.,12.0,0.,12.0
1979-08-07 06:09:11.210 ,2,0,0.,12.0,0.,12.0,0.,12.0,0.,12.0
1979-08-07 06:09:23.210 ,2,0,0.,12.0,0.,12.0,0.,12.0,0.,12.0
1979-08-07 06:09:35.210 ,1,1,0.,12.0,0.,12.0,0.,12.0,0.,12.0
1979-08-07 06:09:47.210 ,1,1,0.,12.0,0.,12.0,0.,12.0,0.,12.0
1979-08-07 06:09:59.210 ,1,0,0.,12.0,0.,12.0,0.,12.0,0.,12.0
1979-08-07 06:10:11.210 ,1,0,0.,12.0,0.,12.0,0.,12.0,0.,12.0
1979-08-07 06:10:23.210 ,0,1,0.,12.0,0.,12.0,0.,12.0,0.,12.0
1979-08-07 06:10:35.210 ,0,1,0.,12.0,0.,12.0,0.,12.0,0.,12.0
1979-08-07 06:10:47.210 ,0,0,0.,12.0,0.,12.0,0.,12.0,0.,12.0
1979-08-07 06:10:59.210 ,0,0,0.,12.0,0.,12.0,0.,12.0,0.,12.0
1979-08-07 06:11:11.210 ,0,1,0.,12.0,0.,12.0,0.,12.0,0.,12.0
1979-08-07 06:11:23.210 ,0,1,0.,12.0,0.,12.0,0.,12.0,0.,12.0
1979-08-07 06:11:35.210 ,0,0,0.,12.0,0.,12.0,0.,12.0,0.,12.0
1979-08-07 06:11:47.210 ,0,0,0.,12.0,0.,12.0,0.,12.0,0.,12.0
1979-08-07 06:11:59.210 ,1,1,0.,12.0,0.,12.0,0.,12.0,0.,12.0
1979-08-07 06:12:11.210 ,1,1,0.,12.0,0.,12.0,0.,12.0,1.,12.0
1979-08-07 06:12:23.210 ,1,0,0.,12.0,0.,12.0,0.,12.0,0.,12.0
1979-08-07 06:12:35.210 ,1,0,0.,12.0,0.,12.0,0.,12.0,0.,12.0
1979-08-07 06:12:47.210 ,2,1,0.,12.0,0.,12.0,0.,12.0,0.,12.0
1979-08-07 06:12:59.210 ,2,1,0.,12.0,0.,12.0,0.,12.0,0.,12.0
1979-08-07 06:13:11.210 ,2,0,0.,12.0,0.,12.0,0.,12.0,0.,12.0
1979-08-07 06:13:23.210 ,2,0,0.,12.0,0.,12.0,0.,12.0,0.,12.0
1979-08-07 06:13:35.210 ,3,1,0.,12.0,0.,12.0,0.,12.0,0.,12.0
1979-08-07 06:13:47.210 ,3,1,0.,12.0,0.,12.0,0.,12.0,0.,12.0
1979-08-07 06:13:59.210 ,3,0,0.,12.0,0.,12.0,0.,12.0,0.,12.0
1979-08-07 06:14:11.210 ,3,0,0.,12.0,0.,12.0,0.,12.0,0.,12.0
1979-08-07 06:14:23.210 ,4,1,0.,12.0,0.,12.0,0.,12.0,0.,12.0
1979-08-07 06:14:35.210 ,4,1,0.,12.0,0.,12.0,0.,12.0,0.,12.0
1979-08-07 06:14:47.210 ,4,0,0.,12.0,0.,12.0,0.,12.0,0.,12.0
1979-08-07 06:14:59.210 ,4,0,0.,12.0,0.,12.0,0.,12.0,0.,12.0
1979-08-07 06:15:11.210 ,5,1,0.,12.0,0.,12.0,0.,12.0,0.,12.0
1979-08-07 06:15:23.210 ,5,1,0.,12.0,0.,12.0,0.,12.0,0.,12.0
1979-08-07 06:15:35.210 ,5,0,0.,12.0,0.,12.0,0.,12.0,0.,12.0
1979-08-07 06:15:47.210 ,5,0,0.,12.0,0.,12.0,0.,12.0,0.,12.0
1979-08-07 06:15:59.210 ,6,1,0.,12.0,0.,12.0,0.,12.0,0.,12.0
1979-08-07 06:16:11.210 ,6,1,0.,12.0,0.,12.0,0.,12.0,0.,12.0
1979-08-07 06:16:23.210 ,6,0,0.,12.0,0.,12.0,0.,12.0,0.,12.0
1979-08-07 06:16:35.210 ,6,0,0.,12.0,0.,12.0,0.,12.0,0.,12.0
1979-08-07 06:16:47.210 ,7,1,0.,12.0,0.,12.0,0.,12.0,0.,12.0
1979-08-07 06:16:59.210 ,7,1,0.,12.0,0.,12.0,0.,12.0,0.,12.0
1979-08-07 06:17:11.210 ,7,0,0.,12.0,0.,12.0,0.,12.0,0.,12.0
1979-08-07 06:17:23.210 ,7,0,0.,12.0,0.,12.0,0.,12.0,0.,12.0
1979-08-07 06:17:35.210 ,7,1,0.,12.0,0.,12.0,0.,12.0,0.,12.0
1979-08-07 06:17:47.210 ,7,1,0.,12.0,0.,12.0,0.,12.0,0.,12.0
1979-08-07 06:17:59.210 ,7,0,0.,12.0,0.,12.0,0.,12.0,0.,12.0
1979-08-07 06:18:11.210 ,7,0,0.,12.0,0.,12.0,0.,12.0,0.,12.0
1979-08-07 06:18:23.210 ,6,1,0.,12.0,0.,12.0,0.,12.0,0.,12.0
1979-08-07 06:18:35.210 ,6,1,0.,12.0,0.,12.0,0.,12.0,0.,12.0
1979-08-07 06:18:47.210 ,6,0,0.,12.0,0.,12.0,0.,12.0,0.,12.0
1979-08-07 06:18:59.210 ,6,0,0.,12.0,0.,12.0,0.,12.0,0.,12.0
1979-08-07 06:19:11.210 ,5,1,0.,12.0,0.,12.0,0.,12.0,0.,12.0
1979-08-07 06:19:23.210 ,5,1,0.,12.0,0.,12.0,0.,12.0,0.,12.0
1979-08-07 06:19:35.210 ,5,0,0.,12.0,0.,12.0,0.,12.0,0.,12.0
1979-08-07 06:19:47.210 ,5,0,0.,12.0,0.,12.0,0.,12.0,0.,12.0
1979-08-07 06:19:59.210 ,4,1,0.,12.0,0.,12.0,0.,12.0,0.,12.0
1979-08-07 06:20:11.210 ,4,1,0.,12.0,0.,12.0,0.,12.0,0.,12.0
1979-08-07 06:20:23.210 ,4,0,0.,12.0,0.,12.0,0.,12.0,0.,12.0
1979-08-07 06:20:35.210 ,4,0,0.,12.0,0.,12.0,0.,12.0,0.,12.0
1979-08-07 06:20:47.210 ,3,1,0.,12.0,0.,12.0,0.,12.0,0.,12.0
1979-08-07 06:20:59.210 ,3,1,0.,12.0,0.,12.0,0.,12.0,0.,12.0
1979-08-07 06:21:11.210 ,3,0,0.,12.0,0.,12.0,0.,12.0,0.,12.0
1979-08-07 06:21:23.210 ,3,0,0.,12.0,0.,12.0,0.,12.0,0.,12.0
1979-08-07 06:21:35.210 ,2,1,0.,12.0,0.,12.0,0.,12.0,0.,12.0
1979-08-07 06:21:47.210 ,2,1,0.,12.0,0.,12.0,0.,12.0,0.,12.0
1979-08-07 06:21:59.210 ,2,0,0.,12.0,0.,12.0,0.,12.0,0.,12.0
1979-08-07 06:22:11.210 ,2,0,0.,12.0,0.,12.0,0.,12.0,0.,12.0
1979-08-07 06:22:23.210 ,1,1,0.,12.0,0.,12.0,0.,12.0,0.,12.0
1979-08-07 06:22:35.210 ,1,1,0.,12.0,0.,12.0,0.,12.0,0.,12.0
1979-08-07 06:22:47.210 ,1,0,0.,12.0,0.,12.0,0.,12.0,0.,12.0
1979-08-07 06:22:59.210 ,1,0,0.,12.0,0.,12.0,0.,12.0,0.,12.0
1979-08-07 06:23:11.210 ,0,1,0.,12.0,0.,12.0,0.,12.0,0.,12.0
1979-08-07 06:23:23.210 ,0,1,0.,12.0,0.,12.0,0.,12.0,0.,12.0
1979-08-07 06:23:35.210 ,0,0,1.,12.0,0.,12.0,0.,12.0,0.,12.0
1979-08-07 06:23:47.210 ,0,0,0.,12.0,0.,12.0,0.,12.0,0.,12.0
1979-08-07 06:23:59.210 ,0,1,0.,12.0,0.,12.0,0.,12.0,0.,12.0
1979-08-07 06:24:11.210 ,0,1,0.,12.0,0.,12.0,0.,12.0,0.,12.0
1979-08-07 06:24:23.210 ,0,0,0.,12.0,0.,12.0,0.,12.0,0.,12.0
1979-08-07 06:24:35.210 ,0,0,0.,12.0,0.,12.0,0.,12.0,0.,12.0
1979-08-07 06:24:47.210 ,1,1,0.,12.0,0.,12.0,1.,12.0,0.,12.0
1979-08-07 06:24:59.210 ,1,1,0.,12.0,0.,12.0,0.,12.0,0.,12.0
1979-08-07 06:25:11.210 ,1,0,0.,12.0,0.,12.0,0.,12.0,0.,12.0
1979-08-07 06:25:23.210 ,1,0,0.,12.0,0.,12.0,0.,12.0,0.,12.0
1979-08-07 06:25:35.210 ,2,1,0.,12.0,0.,12.0,0.,12.0,0.,12.0
1979-08-07 06:25:47.210 ,2,1,0.,12.0,0.,12.0,0.,12.0,0.,12.0
1979-08-07 06:25:59.210 ,2,0,0.,12.0,0.,12.0,0.,12.0,0.,12.0
1979-08-07 06:26:11.210 ,2,0,0.,12.0,0.,12.0,0.,12.0,0.,12.0
1979-08-07 06:26:23.210 ,3,1,0.,12.0,0.,12.0,0.,12.0,0.,12.0
1979-08-07 06:26:35.210 ,3,1,0.,12.0,0.,12.0,0.,12.0,0.,12.0
1979-08-07 06:26:47.210 ,3,0,0.,12.0,0.,12.0,0.,12.0,0.,12.0
1979-08-07 06:26:59.210 ,3,0,0.,12.0,0.,12.0,0.,12.0,0.,12.0
1979-08-07 06:27:11.210 ,4,1,0.,12.0,0.,12.0,0.,12.0,0.,12.0
1979-08-07 06:27:23.210 ,4,1,0.,12.0,0.,12.0,0.,12.0,0.,12.0
1979-08-07 06:27:35.210 ,4,0,0.,12.0,0.,12.0,0.,12.0,0.,12.0
1979-08-07 06:27:47.210 ,4,0,0.,12.0,0.,12.0,0.,12.0,0.,12.0
1979-08-07 06:27:59.210 ,5,1,0.,12.0,0.,12.0,0.,12.0,0.,12.0
1979-08-07 06:28:11.210 ,5,1,0.,12.0,0.,12.0,0.,12.0,0.,12.0
1979-08-07 06:28:23.210 ,5,0,0.,12.0,0.,12.0,0.,12.0,0.,12.0
1979-08-07 06:28:35.210 ,5,0,0.,12.0,0.,12.0,0.,12.0,0.,12.0
1979-08-07 06:28:47.210 ,6,1,0.,12.0,0.,12.0,0.,12.0,0.,12.0
1979-08-07 06:28:59.210 ,6,1,0.,12.0,0.,12.0,0.,12.0,0.,12.0
1979-08-07 06:29:11.210 ,6,0,0.,12.0,0.,12.0,0.,12.0,0.,12.0
1979-08-07 06:29:23.210 ,6,0,0.,12.0,0.,12.0,0.,12.0,0.,12.0
1979-08-07 06:29:35.210 ,7,1,0.,12.0,0.,12.0,0.,12.0,0.,12.0
1979-08-07 06:29:47.210 ,7,1,0.,12.0,0.,12.0,0.,12.0,0.,12.0
1979-08-07 06:29:59.210 ,7,0,0.,12.0,0.,12.0,0.,12.0,0.,12.0
1979-08-07 06:30:11.210 ,7,0,0.,12.0,0.,12.0,0.,12.0,0.,12.0
1979-08-07 06:30:23.210 ,7,1,0.,12.0,0.,12.0,0.,12.0,0.,12.0
1979-08-07 06:30:35.210 ,7,1,0.,12.0,0.,12.0,0.,12.0,0.,12.0
1979-08-07 06:30:47.210 ,7,0,0.,12.0,0.,12.0,0.,12.0,0.,12.0
1979-08-07 06:30:59.210 ,7,0,0.,12.0,0.,12.0,0.,12.0,0.,12.0
1979-08-07 06:31:11.210 ,6,1,0.,12.0,0.,12.0,0.,12.0,0.,12.0
1979-08-07 06:31:23.210 ,6,1,0.,12.0,0.,12.0,0.,12.0,0.,12.0
1979-08-07 06:31:35.210 ,6,0,0.,12.0,0.,12.0,0.,12.0,0.,12.0
1979-08-07 06:31:47.210 ,6,0,0.,12.0,0.,12.0,0.,12.0,0.,12.0
1979-08-07 06:31:59.210 ,5,1,0.,12.0,0.,12.0,0.,12.0,0.,12.0
1979-08-07 06:32:11.210 ,5,1,0.,12.0,0.,12.0,0.,12.0,0.,12.0
1979-08-07 06:32:23.210 ,5,0,0.,12.0,0.,12.0,0.,12.0,0.,12.0
1979-08-07 06:32:35.210 ,5,0,0.,12.0,0.,12.0,0.,12.0,0.,12.0
1979-08-07 06:32:47.210 ,4,1,0.,12.0,0.,12.0,0.,12.0,0.,12.0
1979-08-07 06:32:59.210 ,4,1,0.,12.0,0.,12.0,0.,12.0,0.,12.0
1979-08-07 06:33:11.210 ,4,0,0.,12.0,0.,12.0,0.,12.0,0.,12.0
1979-08-07 06:33:23.210 ,4,0,0.,12.0,0.,12.0,0.,12.0,0.,12.0
1979-08-07 06:33:35.210 ,3,1,0.,12.0,0.,12.0,0.,12.0,0.,12.0
1979-08-07 06:33:47.210 ,3,1,0.,12.0,0.,12.0,0.,12.0,0.,12.0
1979-08-07 06:33:59.210 ,3,0,0.,12.0,0.,12.0,0.,12.0,0.,12.0
1979-08-07 06:34:11.210 ,3,0,0.,12.0,0.,12.0,0.,12.0,0.,12.0
1979-08-07 06:34:23.210 ,2,1,0.,12.0,0.,12.0,0.,12.0,0.,12.0
1979-08-07 06:34:35.210 ,2,1,0.,12.0,0.,12.0,0.,12.0,0.,12.0
1979-08-07 06:34:47.210 ,2,0,0.,12.0,0.,12.0,0.,12.0,0.,12.0
1979-08-07 06:34:59.210 ,2,0,0.,12.0,0.,12.0,0.,12.0,0.,12.0
1979-08-07 06:35:11.210 ,1,1,0.,12.0,0.,12.0,0.,12.0,0.,12.0
1979-08-07 06:35:23.210 ,1,1,0.,12.0,0.,12.0,0.,12.0,0.,12.0
1979-08-07 06:35:35.210 ,1,0,0.,12.0,0.,12.0,0.,12.0,0.,12.0
1979-08-07 06:35:47.210 ,1,0,0.,12.0,0.,12.0,0.,12.0,0.,12.0
1979-08-07 06:35:59.210 ,0,1,0.,12.0,0.,12.0,0.,12.0,0.,12.0
1979-08-07 06:36:11.210 ,0,1,0.,12.0,0.,12.0,0.,12.0,0.,12.0
1979-08-07 06:36:23.210 ,0,0,0.,12.0,0.,12.0,0.,12.0,0.,12.0
1979-08-07 06:36:35.210 ,0,0,0.,12.0,0.,12.0,0.,12.0,0.,12.0
1979-08-07 06:36:47.210 ,0,1,0.,12.0,0.,12.0,0.,12.0,0.,12.0
1979-08-07 06:36:59.210 ,0,1,0.,12.0,0.,12.0,0.,12.0,0.,12.0
1979-08-07 06:37:11.210 ,0,0,0.,12.0,0.,12.0,0.,12.0,0.,12.0
1979-08-07 06:37:23.210 ,0,0,0.,12.0,0.,12.0,0.,12.0,0.,12.0
1979-08-07 06:37:35.210 ,1,1,0.,12.0,0.,12.0,0.,12.0,0.,12.0
1979-08-07 06:37:47.210 ,1,1,0.,12.0,0.,12.0,0.,12.0,0.,12.0
1979-08-07 06:37:59.210 ,1,0,0.,12.0,0.,12.0,0.,12.0,0.,12.0
1979-08-07 06:38:11.210 ,1,0,0.,12.0,0.,12.0,0.,12.0,0.,12.0
1979-08-07 06:38:23.210 ,2,1,0.,12.0,0.,12.0,0.,12.0,0.,12.0
1979-08-07 06:38:35.210 ,2,1,0.,12.0,0.,12.0,0.,12.0,0.,12.0
1979-08-07 06:38:47.210 ,2,0,0.,12.0,0.,12.0,0.,12.0,0.,12.0
1979-08-07 06:38:59.210 ,2,0,0.,12.0,0.,12.0,0.,12.0,0.,12.0
1979-08-07 06:39:11.210 ,3,1,0.,12.0,0.,12.0,0.,12.0,0.,12.0
1979-08-07 06:39:23.210 ,3,1,0.,12.0,0.,12.0,0.,12.0,0.,12.0
1979-08-07 06:39:35.210 ,3,0,0.,12.0,0.,12.0,0.,12.0,0.,12.0
1979-08-07 06:39:47.210 ,3,0,0.,12.0,0.,12.0,0.,12.0,0.,12.0
1979-08-07 06:39:59.210 ,4,1,0.,12.0,0.,12.0,0.,12.0,0.,12.0
1979-08-07 06:40:11.210 ,4,1,0.,12.0,0.,12.0,0.,12.0,0.,12.0
1979-08-07 06:40:23.210 ,4,0,0.,12.0,0.,12.0,0.,12.0,0.,12.0
1979-08-07 06:40:35.210 ,4,0,0.,12.0,0.,12.0,0.,12.0,0.,12.0
1979-08-07 06:40:47.210 ,5,1,0.,12.0,0.,12.0,0.,12.0,0.,12.0
1979-08-07 06:40:59.210 ,5,1,0.,12.0,0.,12.0,0.,12.0,0.,12.0
1979-08-07 06:41:11.210 ,5,0,0.,12.0,0.,12.0,0.,12.0,0.,12.0
1979-08-07 06:41:23.210 ,5,0,0.,12.0,0.,12.0,0.,12.0,0.,12.0
1979-08-07 06:41:35.210 ,6,1,0.,12.0,0.,12.0,0.,12.0,0.,12.0
1979-08-07 06:41:47.210 ,6,1,0.,12.0,0.,12.0,0.,12.0,0.,12.0
1979-08-07 06:41:59.210 ,0,0,0.,12.0,0.,12.0,0.,12.0,0.,12.0
1979-08-07 06:42:11.210 ,0,0,0.,12.0,0.,12.0,0.,12.0,0.,12.0
1979-08-07 06:42:33.410 ,7,0,,0,,0,,0,,0
1979-08-07 06:42:45.410 ,7,0,0.,12.0,0.,12.0,0.,12.0,0.,12.0
1979-08-07 06:42:47.210 ,7,0,0.,12.0,0.,12.0,0.,12.0,0.,12.0
1979-08-07 06:42:59.210 ,7,0,0.,12.0,0.,12.0,0.,12.0,0.,12.0
1979-08-07 06:43:11.210 ,4,1,0.,12.0,0.,12.0,0.,12.0,0.,12.0
1979-08-07 06:43:23.210 ,4,1,0.,12.0,0.,12.0,0.,12.0,0.,12.0
1979-08-07 06:43:35.210 ,0,1,0.,12.0,0.,12.0,0.,12.0,0.,12.0
1979-08-07 06:43:47.210 ,0,1,0.,12.0,0.,12.0,0.,12.0,0.,12.0
1979-08-07 06:43:59.210 ,3,1,0.,12.0,0.,12.0,0.,12.0,0.,12.0
1979-08-07 06:44:11.210 ,3,1,0.,12.0,0.,12.0,0.,12.0,0.,12.0
1979-08-07 06:44:23.210 ,7,1,0.,12.0,0.,12.0,0.,12.0,0.,12.0
1979-08-07 06:44:35.210 ,7,1,0.,12.0,0.,12.0,0.,12.0,0.,12.0
1979-08-07 06:44:47.210 ,4,1,0.,12.0,0.,12.0,0.,12.0,0.,12.0
1979-08-07 06:44:59.210 ,4,1,0.,12.0,0.,12.0,0.,12.0,0.,12.0
1979-08-07 06:45:11.210 ,0,1,0.,12.0,0.,12.0,0.,12.0,0.,12.0
1979-08-07 06:45:23.210 ,0,1,0.,12.0,0.,12.0,0.,12.0,0.,12.0
1979-08-07 06:45:35.210 ,3,1,1.,12.0,0.,12.0,0.,12.0,0.,12.0
1979-08-07 06:45:47.210 ,3,1,0.,12.0,0.,12.0,0.,12.0,0.,12.0
1979-08-07 06:45:59.210 ,7,1,0.,12.0,0.,12.0,0.,12.0,0.,12.0
1979-08-07 06:46:11.210 ,7,1,0.,12.0,0.,12.0,0.,12.0,0.,12.0
1979-08-07 06:46:23.210 ,4,1,0.,12.0,0.,12.0,0.,12.0,0.,12.0
1979-08-07 06:46:35.210 ,4,1,0.,12.0,0.,12.0,0.,12.0,0.,12.0
1979-08-07 06:46:47.210 ,0,1,0.,12.0,0.,12.0,0.,12.0,0.,12.0
1979-08-07 06:46:59.210 ,0,1,0.,12.0,0.,12.0,0.,12.0,0.,12.0
1979-08-07 06:47:11.210 ,3,1,0.,12.0,0.,12.0,0.,12.0,0.,12.0
1979-08-07 06:47:23.210 ,3,1,0.,12.0,0.,12.0,0.,12.0,0.,12.0
1979-08-07 06:47:35.210 ,7,1,0.,12.0,0.,12.0,0.,12.0,0.,12.0
1979-08-07 06:47:47.210 ,7,1,0.,12.0,0.,12.0,0.,12.0,0.,12.0
1979-08-07 06:47:59.210 ,4,1,0.,12.0,0.,12.0,0.,12.0,0.,12.0
1979-08-07 06:48:11.210 ,4,1,0.,12.0,0.,12.0,0.,12.0,0.,12.0
1979-08-07 06:48:23.210 ,0,1,0.,12.0,0.,12.0,0.,12.0,0.,12.0
1979-08-07 06:48:35.210 ,0,1,0.,12.0,0.,12.0,0.,12.0,0.,12.0
1979-08-07 06:48:47.210 ,3,1,0.,12.0,0.,12.0,0.,12.0,0.,12.0
1979-08-07 06:48:59.210 ,3,1,0.,12.0,0.,12.0,0.,12.0,0.,12.0
1979-08-07 06:49:11.210 ,7,1,0.,12.0,0.,12.0,0.,12.0,0.,12.0
1979-08-07 06:49:23.210 ,7,1,0.,12.0,0.,12.0,0.,12.0,0.,12.0
1979-08-07 06:49:35.210 ,4,1,0.,12.0,0.,12.0,0.,12.0,0.,12.0
1979-08-07 06:49:47.210 ,4,1,0.,12.0,0.,12.0,0.,12.0,0.,12.0
1979-08-07 06:49:59.210 ,0,1,0.,12.0,0.,12.0,0.,12.0,0.,12.0
1979-08-07 06:50:11.210 ,0,1,0.,12.0,0.,12.0,0.,12.0,0.,12.0
1979-08-07 06:50:23.210 ,3,1,0.,12.0,0.,12.0,0.,12.0,0.,12.0
1979-08-07 06:50:35.210 ,3,1,0.,12.0,0.,12.0,0.,12.0,0.,12.0
1979-08-07 06:50:47.210 ,7,1,0.,12.0,0.,12.0,0.,12.0,0.,12.0
1979-08-07 06:50:59.210 ,7,1,0.,12.0,0.,12.0,0.,12.0,0.,12.0
1979-08-07 06:51:11.210 ,4,1,0.,12.0,0.,12.0,0.,12.0,0.,12.0
1979-08-07 06:51:23.210 ,4,1,0.,12.0,0.,12.0,0.,12.0,0.,12.0
1979-08-07 06:51:35.210 ,0,1,0.,12.0,0.,12.0,0.,12.0,0.,12.0
1979-08-07 06:51:47.210 ,0,1,0.,12.0,0.,12.0,0.,12.0,0.,12.0
1979-08-07 06:51:59.210 ,3,1,0.,12.0,0.,12.0,0.,12.0,0.,12.0
1979-08-07 06:52:11.210 ,3,1,0.,12.0,0.,12.0,0.,12.0,0.,12.0
1979-08-07 06:52:23.210 ,7,1,0.,12.0,0.,12.0,0.,12.0,0.,12.0
1979-08-07 06:52:35.210 ,7,1,0.,12.0,0.,12.0,0.,12.0,0.,12.0
1979-08-07 06:52:47.210 ,4,1,0.,12.0,0.,12.0,0.,12.0,0.,12.0
1979-08-07 06:52:59.210 ,4,1,0.,12.0,0.,12.0,0.,12.0,0.,12.0
1979-08-07 06:53:11.210 ,0,1,1.,12.0,0.,12.0,0.,12.0,0.,12.0
1979-08-07 06:53:23.210 ,0,1,0.,12.0,0.,12.0,0.,12.0,0.,12.0
1979-08-07 06:53:35.210 ,0,0,1.,12.0,0.,12.0,0.,12.0,0.,12.0
1979-08-07 06:53:47.210 ,0,0,0.,12.0,0.,12.0,0.,12.0,0.,12.0
1979-08-07 06:53:59.210 ,0,0,0.,12.0,0.,12.0,0.,12.0,0.,12.0
1979-08-07 06:54:11.210 ,0,0,0.,12.0,0.,12.0,0.,12.0,0.,12.0
1979-08-07 06:54:23.210 ,5,1,0.,12.0,0.,12.0,0.,12.0,0.,12.0
1979-08-07 06:54:35.210 ,5,1,0.,12.0,0.,12.0,0.,12.0,0.,12.0
1979-08-07 06:54:47.210 ,5,0,0.,12.0,0.,12.0,0.,12.0,0.,12.0
1979-08-07 06:54:59.210 ,5,0,0.,12.0,0.,12.0,0.,12.0,0.,12.0
1979-08-07 06:55:11.210 ,4,1,0.,12.0,0.,12.0,0.,12.0,0.,12.0
1979-08-07 06:55:23.210 ,4,1,0.,12.0,0.,12.0,0.,12.0,0.,12.0
1979-08-07 06:55:35.210 ,4,0,0.,12.0,0.,12.0,0.,12.0,0.,12.0
1979-08-07 06:55:47.210 ,4,0,0.,12.0,0.,12.0,0.,12.0,0.,12.0
1979-08-07 06:55:59.210 ,3,1,0.,12.0,0.,12.0,0.,12.0,0.,12.0
1979-08-07 06:56:11.210 ,3,1,0.,12.0,0.,12.0,0.,12.0,0.,12.0
1979-08-07 06:56:23.210 ,3,0,0.,12.0,0.,12.0,0.,12.0,0.,12.0
1979-08-07 06:56:35.210 ,3,0,0.,12.0,0.,12.0,0.,12.0,0.,12.0
1979-08-07 06:56:47.210 ,2,1,0.,12.0,0.,12.0,0.,12.0,0.,12.0
1979-08-07 06:56:59.210 ,2,1,0.,12.0,0.,12.0,0.,12.0,0.,12.0
1979-08-07 06:57:11.210 ,2,0,0.,12.0,0.,12.0,0.,12.0,0.,12.0
1979-08-07 06:57:23.210 ,2,0,0.,12.0,0.,12.0,0.,12.0,0.,12.0
1979-08-07 06:57:35.210 ,1,1,0.,12.0,0.,12.0,0.,12.0,0.,12.0
1979-08-07 06:57:47.210 ,1,1,0.,12.0,0.,12.0,0.,12.0,0.,12.0
1979-08-07 06:57:59.210 ,1,0,0.,12.0,0.,12.0,0.,12.0,0.,12.0
1979-08-07 06:58:11.210 ,1,0,0.,12.0,0.,12.0,0.,12.0,0.,12.0
1979-08-07 06:58:23.210 ,0,1,0.,12.0,0.,12.0,0.,12.0,0.,12.0
1979-08-07 06:58:35.210 ,0,1,0.,12.0,0.,12.0,0.,12.0,0.,12.0
1979-08-07 06:58:47.210 ,0,0,0.,12.0,0.,12.0,0.,12.0,0.,12.0
1979-08-07 06:58:59.210 ,0,0,0.,12.0,0.,12.0,0.,12.0,0.,12.0
1979-08-07 06:59:11.210 ,0,1,0.,12.0,0.,12.0,0.,12.0,0.,12.0
1979-08-07 06:59:23.210 ,0,1,0.,12.0,0.,12.0,0.,12.0,0.,12.0
1979-08-07 06:59:35.210 ,0,0,0.,12.0,0.,12.0,0.,12.0,0.,12.0
1979-08-07 06:59:47.210 ,0,0,0.,12.0,0.,12.0,0.,12.0,0.,12.0
1979-08-07 06:59:59.210 ,1,1,0.,12.0,0.,12.0,0.,12.0,0.,12.0
1979-08-07 07:00:11.210 ,1,1,0.,12.0,0.,12.0,0.,12.0,0.,12.0
1979-08-07 07:00:23.210 ,1,0,0.,12.0,0.,12.0,0.,12.0,0.,12.0
1979-08-07 07:00:35.210 ,1,0,0.,12.0,0.,12.0,0.,12.0,0.,12.0
1979-08-07 07:00:47.210 ,2,1,0.,12.0,0.,12.0,0.,12.0,0.,12.0
1979-08-07 07:00:59.210 ,2,1,0.,12.0,0.,12.0,0.,12.0,0.,12.0
1979-08-07 07:01:11.210 ,2,0,0.,12.0,0.,12.0,0.,12.0,0.,12.0
1979-08-07 07:01:23.210 ,2,0,0.,12.0,0.,12.0,0.,12.0,0.,12.0
1979-08-07 07:01:35.210 ,3,1,0.,12.0,0.,12.0,0.,12.0,0.,12.0
1979-08-07 07:01:47.210 ,3,1,0.,12.0,0.,12.0,0.,12.0,0.,12.0
1979-08-07 07:01:59.210 ,3,0,0.,12.0,0.,12.0,0.,12.0,0.,12.0
1979-08-07 07:02:11.210 ,3,0,0.,12.0,0.,12.0,0.,12.0,0.,12.0
1979-08-07 07:02:23.210 ,4,1,0.,12.0,0.,12.0,0.,12.0,0.,12.0
1979-08-07 07:02:35.210 ,4,1,0.,12.0,0.,12.0,0.,12.0,0.,12.0
1979-08-07 07:02:47.210 ,4,0,0.,12.0,0.,12.0,0.,12.0,0.,12.0
1979-08-07 07:02:59.210 ,4,0,0.,12.0,0.,12.0,0.,12.0,0.,12.0
1979-08-07 07:03:11.210 ,5,1,0.,12.0,0.,12.0,0.,12.0,0.,12.0
1979-08-07 07:03:23.210 ,5,1,0.,12.0,0.,12.0,0.,12.0,0.,12.0
1979-08-07 07:03:35.210 ,5,0,0.,12.0,0.,12.0,0.,12.0,0.,12.0
1979-08-07 07:03:47.210 ,5,0,0.,12.0,0.,12.0,0.,12.0,0.,12.0
1979-08-07 07:03:59.210 ,6,1,0.,12.0,0.,12.0,0.,12.0,0.,12.0
1979-08-07 07:04:11.210 ,6,1,0.,12.0,0.,12.0,0.,12.0,0.,12.0
1979-08-07 07:04:23.210 ,6,0,0.,12.0,0.,12.0,0.,12.0,0.,12.0
1979-08-07 07:04:35.210 ,6,0,0.,12.0,0.,12.0,0.,12.0,0.,12.0
1979-08-07 07:04:47.210 ,7,1,0.,12.0,0.,12.0,0.,12.0,0.,12.0
1979-08-07 07:04:59.210 ,7,1,0.,12.0,0.,12.0,0.,12.0,0.,12.0
1979-08-07 07:05:11.210 ,7,0,0.,12.0,0.,12.0,0.,12.0,0.,12.0
1979-08-07 07:05:23.210 ,7,0,0.,12.0,0.,12.0,0.,12.0,0.,12.0
1979-08-07 07:05:35.210 ,7,1,0.,12.0,0.,12.0,0.,12.0,0.,12.0
1979-08-07 07:05:47.210 ,7,1,0.,12.0,0.,12.0,0.,12.0,0.,12.0
1979-08-07 07:05:59.210 ,7,0,0.,12.0,0.,12.0,0.,12.0,0.,12.0
1979-08-07 07:06:11.210 ,7,0,0.,12.0,0.,12.0,0.,12.0,0.,12.0
1979-08-07 07:06:23.210 ,6,1,0.,12.0,0.,12.0,0.,12.0,0.,12.0
1979-08-07 07:06:35.210 ,6,1,0.,12.0,0.,12.0,0.,12.0,0.,12.0
1979-08-07 07:06:47.210 ,6,0,0.,12.0,0.,12.0,0.,12.0,0.,12.0
1979-08-07 07:06:59.210 ,6,0,0.,12.0,0.,12.0,0.,12.0,0.,12.0
1979-08-07 07:07:11.210 ,5,1,0.,12.0,0.,12.0,0.,12.0,0.,12.0
1979-08-07 07:07:23.210 ,5,1,0.,12.0,0.,12.0,0.,12.0,0.,12.0
1979-08-07 07:07:35.210 ,5,0,0.,12.0,0.,12.0,0.,12.0,0.,12.0
1979-08-07 07:07:47.210 ,5,0,0.,12.0,0.,12.0,0.,12.0,0.,12.0
1979-08-07 07:07:59.210 ,4,1,0.,12.0,0.,12.0,0.,12.0,0.,12.0
1979-08-07 07:08:11.210 ,4,1,0.,12.0,0.,12.0,0.,12.0,0.,12.0
1979-08-07 07:08:23.210 ,4,0,0.,12.0,0.,12.0,0.,12.0,0.,12.0
1979-08-07 07:08:35.210 ,4,0,0.,12.0,0.,12.0,0.,12.0,0.,12.0
1979-08-07 07:08:47.210 ,3,1,0.,12.0,0.,12.0,0.,12.0,0.,12.0
1979-08-07 07:08:59.210 ,3,1,0.,12.0,0.,12.0,0.,12.0,0.,12.0
1979-08-07 07:09:11.210 ,3,0,0.,12.0,0.,12.0,0.,12.0,0.,12.0
1979-08-07 07:09:23.210 ,3,0,0.,12.0,0.,12.0,0.,12.0,0.,12.0
1979-08-07 07:09:35.210 ,2,1,0.,12.0,0.,12.0,0.,12.0,0.,12.0
1979-08-07 07:09:47.210 ,2,1,0.,12.0,0.,12.0,0.,12.0,0.,12.0
1979-08-07 07:09:59.210 ,2,0,0.,12.0,0.,12.0,0.,12.0,0.,12.0
1979-08-07 07:10:11.210 ,2,0,0.,12.0,0.,12.0,0.,12.0,0.,12.0
1979-08-07 07:10:23.210 ,1,1,0.,12.0,0.,12.0,0.,12.0,0.,12.0
1979-08-07 07:10:35.210 ,1,1,0.,12.0,0.,12.0,0.,12.0,0.,12.0
1979-08-07 07:10:47.210 ,1,0,0.,12.0,0.,12.0,0.,12.0,0.,12.0
1979-08-07 07:10:59.210 ,1,0,0.,12.0,0.,12.0,0.,12.0,0.,12.0
1979-08-07 07:11:11.210 ,0,1,0.,12.0,0.,12.0,0.,12.0,0.,12.0
1979-08-07 07:11:23.210 ,0,1,0.,12.0,0.,12.0,0.,12.0,0.,12.0
1979-08-07 07:11:35.210 ,0,0,0.,12.0,0.,12.0,0.,12.0,0.,12.0
1979-08-07 07:11:47.210 ,0,0,0.,12.0,0.,12.0,0.,12.0,0.,12.0
1979-08-07 07:11:59.210 ,0,1,0.,12.0,0.,12.0,0.,12.0,0.,12.0
1979-08-07 07:12:11.210 ,0,1,0.,12.0,0.,12.0,0.,12.0,0.,12.0
1979-08-07 07:12:23.210 ,0,0,0.,12.0,0.,12.0,0.,12.0,0.,12.0
1979-08-07 07:12:35.210 ,0,0,0.,12.0,0.,12.0,0.,12.0,0.,12.0
1979-08-07 07:12:47.210 ,1,1,0.,12.0,0.,12.0,0.,12.0,0.,12.0
1979-08-07 07:12:59.210 ,1,1,0.,12.0,0.,12.0,0.,12.0,0.,12.0
1979-08-07 07:13:11.210 ,1,0,0.,12.0,0.,12.0,0.,12.0,0.,12.0
1979-08-07 07:13:23.210 ,1,0,0.,12.0,0.,12.0,0.,12.0,0.,12.0
1979-08-07 07:13:35.210 ,2,1,0.,12.0,0.,12.0,0.,12.0,0.,12.0
1979-08-07 07:13:47.210 ,2,1,0.,12.0,0.,12.0,0.,12.0,0.,12.0
1979-08-07 07:13:59.210 ,2,0,0.,12.0,0.,12.0,0.,12.0,0.,12.0
1979-08-07 07:14:11.210 ,2,0,0.,12.0,0.,12.0,0.,12.0,0.,12.0
1979-08-07 07:14:23.210 ,3,1,0.,12.0,0.,12.0,0.,12.0,0.,12.0
1979-08-07 07:14:35.210 ,3,1,0.,12.0,0.,12.0,0.,12.0,0.,12.0
1979-08-07 07:14:47.210 ,3,0,0.,12.0,0.,12.0,0.,12.0,0.,12.0
1979-08-07 07:14:59.210 ,3,0,0.,12.0,0.,12.0,0.,12.0,0.,12.0
1979-08-07 07:15:11.210 ,4,1,0.,12.0,0.,12.0,0.,12.0,0.,12.0
1979-08-07 07:15:23.210 ,4,1,0.,12.0,0.,12.0,0.,12.0,0.,12.0
1979-08-07 07:15:35.210 ,4,0,0.,12.0,0.,12.0,0.,12.0,0.,12.0
1979-08-07 07:15:47.210 ,4,0,0.,12.0,0.,12.0,0.,12.0,0.,12.0
1979-08-07 07:15:59.210 ,5,1,0.,12.0,0.,12.0,0.,12.0,0.,12.0
1979-08-07 07:16:11.210 ,5,1,0.,12.0,0.,12.0,0.,12.0,0.,12.0
1979-08-07 07:16:23.210 ,5,0,0.,12.0,0.,12.0,0.,12.0,0.,12.0
1979-08-07 07:16:35.210 ,5,0,0.,12.0,0.,12.0,0.,12.0,0.,12.0
1979-08-07 07:16:47.210 ,6,1,0.,12.0,0.,12.0,0.,12.0,0.,12.0
1979-08-07 07:16:59.210 ,6,1,0.,12.0,0.,12.0,0.,12.0,0.,12.0
1979-08-07 07:17:11.210 ,6,0,0.,12.0,0.,12.0,0.,12.0,0.,12.0
1979-08-07 07:17:23.210 ,6,0,0.,12.0,0.,12.0,0.,12.0,0.,12.0